Weather History for Chandler, OK

Change the Weather History Date:

Monday, February 10, 2014

  Actual Average (KCUH) Record (KCUH)
Temperature  
Mean Temperature 28 °F -  
Max Temperature 32 °F 47 °F 82 °F (1954)
Min Temperature 23 °F 25 °F -16 °F (2011)
Degree Days  
Heating Degree Days 38    
Moisture  
Dew Point 21 °F    
Average Humidity 80    
Maximum Humidity 93    
Minimum Humidity 69    
Precipitation  
Precipitation 0.00 in - - ()
Sea Level Pressure  
Sea Level Pressure 30.33 in    
Wind  
Wind Speed 10 mph (NE)    
Max Wind Speed 15 mph    
Max Gust Speed 21 mph    
Visibility 9 miles    
Events      
Averages and records for this station are not official NWS values.
T = Trace of Precipitation, MM = Missing Value Source: NWS Daily Summary

Daily Weather History Graph

Daily Weather History Graph

Search for Another Location

Airport:

Trip Planner

Search our weather history database for the weather conditions in past years. The results will help you decide how hot, cold, wet, or windy it might be!

Date:

Astronomy

Feb. 10, 2014 Rise Set
Actual Time 7:19 AM CST 6:04 PM CST
Civil Twilight 6:52 AM CST 6:30 PM CST
Nautical Twilight 6:22 AM CST 7:00 PM CST
Astronomical Twilight 5:53 AM CST 7:30 PM CST
Moon 2:37 PM CST (2/10) 4:10 AM CST (2/10)
Length of Visible Light 11h 37m
Length of Day
10h 44m
Waxing Gibbous, 85% of the Moon is Illuminated
Feb 10
Waxing Gibbous
Feb 14
Full
Feb 22
Last Quarter
Mar 1
New
Mar 8
First Quarter

Hourly Weather History & Observations

Time (CST) Temp. Windchill Dew Point Humidity Pressure Visibility Wind Dir Wind Speed Gust Speed Precip Events Conditions
12:15 AM 28.4 °F 19.7 °F 26.6 °F 93% 30.27 in 7.0 mi NNE 9.2 mph 17.3 mph N/A   Unknown
12:35 AM 28.4 °F 17.0 °F 26.6 °F 93% 30.28 in 5.0 mi NNE 15.0 mph 20.7 mph N/A   Mist
12:55 AM 28.4 °F 19.1 °F 26.6 °F 93% 30.29 in 5.0 mi NNE 10.4 mph - N/A   Mist
1:15 AM 26.6 °F 16.8 °F 24.8 °F 93% 30.30 in 7.0 mi NNE 10.4 mph 18.4 mph N/A   Unknown
1:35 AM 26.6 °F 16.8 °F 24.8 °F 93% 30.29 in 7.0 mi NNE 10.4 mph 17.3 mph N/A   Unknown
1:55 AM 26.6 °F 18.2 °F 23.0 °F 86% 30.29 in 7.0 mi NNE 8.1 mph 17.3 mph N/A   Unknown
2:15 AM 26.6 °F 16.2 °F 23.0 °F 86% 30.30 in 7.0 mi NNE 11.5 mph - N/A   Unknown
2:35 AM 26.6 °F 16.2 °F 23.0 °F 86% 30.30 in 7.0 mi NNE 11.5 mph 18.4 mph N/A   Unknown
2:55 AM 26.6 °F 16.8 °F 23.0 °F 86% 30.31 in 7.0 mi NNE 10.4 mph - N/A   Unknown
3:15 AM 24.8 °F 14.6 °F 23.0 °F 93% 30.30 in 7.0 mi NNE 10.4 mph - N/A   Unknown
3:35 AM 24.8 °F 14.6 °F 23.0 °F 93% 30.29 in 7.0 mi NNE 10.4 mph - N/A   Unknown
3:55 AM 24.8 °F 14.6 °F 23.0 °F 93% 30.30 in 7.0 mi NNE 10.4 mph - N/A   Unknown
4:15 AM 24.8 °F 15.3 °F 23.0 °F 93% 30.30 in 7.0 mi NNE 9.2 mph 16.1 mph N/A   Unknown
4:35 AM 24.8 °F 13.4 °F 21.2 °F 86% 30.31 in 10.0 mi NNE 12.7 mph 20.7 mph N/A   Unknown
4:55 AM 24.8 °F 12.4 °F 21.2 °F 86% 30.31 in 10.0 mi NNE 15.0 mph 20.7 mph N/A   Unknown
5:15 AM 23.0 °F 11.1 °F 21.2 °F 93% 30.32 in 10.0 mi NNE 12.7 mph 19.6 mph N/A   Unknown
5:35 AM 23.0 °F 13.1 °F 21.2 °F 93% 30.32 in 10.0 mi NNE 9.2 mph - N/A   Unknown
5:55 AM 23.0 °F 12.4 °F 19.4 °F 86% 30.32 in 10.0 mi NNE 10.4 mph - N/A   Unknown
6:15 AM 23.0 °F 11.7 °F 19.4 °F 86% 30.32 in 10.0 mi NNE 11.5 mph - N/A   Unknown
6:35 AM 23.0 °F 11.7 °F 19.4 °F 86% 30.34 in 10.0 mi NNE 11.5 mph 17.3 mph N/A   Unknown
6:55 AM 23.0 °F 11.7 °F 19.4 °F 86% 30.34 in 10.0 mi NNE 11.5 mph - N/A   Unknown
7:15 AM 23.0 °F 13.1 °F 19.4 °F 86% 30.35 in 10.0 mi NE 9.2 mph - N/A   Unknown
7:35 AM 23.0 °F 13.1 °F 19.4 °F 86% 30.35 in 10.0 mi NNE 9.2 mph - N/A   Unknown
7:55 AM 23.0 °F 13.9 °F 19.4 °F 86% 30.36 in 10.0 mi NNE 8.1 mph - N/A   Unknown
8:15 AM 23.0 °F 13.1 °F 19.4 °F 86% 30.36 in 10.0 mi NNE 9.2 mph - N/A   Unknown
8:35 AM 23.0 °F 13.1 °F 19.4 °F 86% 30.36 in 10.0 mi NE 9.2 mph - N/A   Unknown
8:55 AM 23.0 °F 13.1 °F 19.4 °F 86% 30.37 in 10.0 mi NNE 9.2 mph - N/A   Unknown
9:15 AM 23.0 °F 12.4 °F 19.4 °F 86% 30.39 in 10.0 mi NE 10.4 mph 17.3 mph N/A   Unknown
9:35 AM 23.0 °F 12.4 °F 19.4 °F 86% 30.39 in 10.0 mi NNE 10.4 mph 16.1 mph N/A   Unknown
9:55 AM 23.0 °F 11.7 °F 19.4 °F 86% 30.39 in 10.0 mi NNE 11.5 mph - N/A   Unknown
10:15 AM 23.0 °F 11.7 °F 19.4 °F 86% 30.39 in 10.0 mi NNE 11.5 mph - N/A   Unknown
10:35 AM 23.0 °F 12.4 °F 19.4 °F 86% 30.39 in 10.0 mi NNE 10.4 mph - N/A   Unknown
10:55 AM 23.0 °F 12.4 °F 19.4 °F 86% 30.39 in 10.0 mi NE 10.4 mph 16.1 mph N/A   Unknown
11:15 AM 24.8 °F 14.0 °F 19.4 °F 80% 30.38 in 10.0 mi NNE 11.5 mph - N/A   Unknown
11:35 AM 24.8 °F 15.3 °F 19.4 °F 80% 30.37 in 10.0 mi NE 9.2 mph - N/A   Unknown
11:55 AM 26.6 °F 17.5 °F 19.4 °F 74% 30.37 in 10.0 mi NNE 9.2 mph - N/A   Unknown
12:15 PM 26.6 °F 20.0 °F 21.2 °F 80% 30.35 in 10.0 mi NE 5.8 mph 9.2 mph N/A   Unknown
12:35 PM 28.4 °F 20.4 °F 21.2 °F 74% 30.34 in 10.0 mi NE 8.1 mph - N/A   Unknown
12:55 PM 30.2 °F 25.4 °F 21.2 °F 69% 30.33 in 10.0 mi NE 4.6 mph - N/A   Unknown
1:15 PM 32.0 °F 25.6 °F 23.0 °F 69% 30.32 in 10.0 mi ENE 6.9 mph - N/A   Unknown
1:35 PM 32.0 °F 24.8 °F 23.0 °F 69% 30.31 in 10.0 mi ENE 8.1 mph - N/A   Unknown
1:55 PM 32.0 °F 24.8 °F 23.0 °F 69% 30.31 in 10.0 mi NE 8.1 mph - N/A   Unknown
2:15 PM 32.0 °F 24.2 °F 23.0 °F 69% 30.29 in 10.0 mi ENE 9.2 mph - N/A   Unknown
2:35 PM 32.0 °F 26.4 °F 23.0 °F 69% 30.28 in 10.0 mi NE 5.8 mph - N/A   Unknown
2:55 PM 32.0 °F 24.8 °F 23.0 °F 69% 30.29 in 10.0 mi NNE 8.1 mph - N/A   Unknown
3:15 PM 32.0 °F 26.4 °F 23.0 °F 69% 30.29 in 10.0 mi NE 5.8 mph - N/A   Unknown
3:35 PM 32.0 °F 26.4 °F 23.0 °F 69% 30.28 in 10.0 mi NNE 5.8 mph - N/A   Unknown
3:55 PM 32.0 °F 24.2 °F 23.0 °F 69% 30.29 in 10.0 mi NE 9.2 mph - N/A   Unknown
4:15 PM 32.0 °F 24.8 °F 23.0 °F 69% 30.30 in 10.0 mi NNE 8.1 mph - N/A   Unknown
4:35 PM 32.0 °F 24.2 °F 23.0 °F 69% 30.30 in 10.0 mi NE 9.2 mph 16.1 mph N/A   Unknown
4:55 PM 32.0 °F 23.6 °F 23.0 °F 69% 30.30 in 10.0 mi NE 10.4 mph - N/A   Unknown
5:15 PM 30.2 °F 21.9 °F 21.2 °F 69% 30.31 in 10.0 mi NE 9.2 mph - N/A   Unknown
5:35 PM 30.2 °F 21.3 °F 21.2 °F 69% 30.31 in 10.0 mi NNE 10.4 mph 17.3 mph N/A   Unknown
5:55 PM 28.4 °F 19.1 °F 21.2 °F 74% 30.32 in 10.0 mi NE 10.4 mph 17.3 mph N/A   Unknown
6:15 PM 28.4 °F 20.4 °F 21.2 °F 74% 30.32 in 10.0 mi NE 8.1 mph - N/A   Unknown
6:35 PM 28.4 °F 19.7 °F 21.2 °F 74% 30.32 in 10.0 mi NE 9.2 mph - N/A   Unknown
6:55 PM 28.4 °F 19.1 °F 21.2 °F 74% 30.32 in 10.0 mi NNE 10.4 mph - N/A   Unknown
7:15 PM 26.6 °F 18.2 °F 19.4 °F 74% 30.33 in 10.0 mi NE 8.1 mph 16.1 mph N/A   Unknown
7:35 PM 26.6 °F 17.5 °F 19.4 °F 74% 30.34 in 10.0 mi NE 9.2 mph - N/A   Unknown
7:55 PM 26.6 °F 17.5 °F 19.4 °F 74% 30.34 in 10.0 mi NE 9.2 mph - N/A   Unknown
8:15 PM 26.6 °F 19.1 °F 19.4 °F 74% 30.34 in 10.0 mi NE 6.9 mph - N/A   Unknown
8:35 PM 26.6 °F 16.8 °F 19.4 °F 74% 30.35 in 10.0 mi NE 10.4 mph - N/A   Unknown
8:55 PM 26.6 °F 17.5 °F 19.4 °F 74% 30.35 in 10.0 mi NE 9.2 mph - N/A   Unknown
9:15 PM 24.8 °F 15.3 °F 19.4 °F 80% 30.35 in 10.0 mi NE 9.2 mph - N/A   Unknown
9:35 PM 24.8 °F 16.1 °F 17.6 °F 74% 30.37 in 10.0 mi NNE 8.1 mph - N/A   Unknown
9:55 PM 23.0 °F 15.8 °F 17.6 °F 80% 30.37 in 10.0 mi NNE 5.8 mph - N/A   Unknown
10:15 PM 23.0 °F 15.8 °F 17.6 °F 80% 30.37 in 10.0 mi NE 5.8 mph - N/A   Unknown
10:35 PM 23.0 °F 15.8 °F 15.8 °F 74% 30.38 in 10.0 mi NNE 5.8 mph - N/A   Unknown
10:55 PM 23.0 °F 15.8 °F 15.8 °F 74% 30.38 in 10.0 mi NNE 5.8 mph - N/A   Unknown
11:15 PM 23.0 °F 15.8 °F 15.8 °F 74% 30.38 in 10.0 mi NNE 5.8 mph - N/A   Unknown
11:35 PM 23.0 °F 15.8 °F 15.8 °F 74% 30.39 in 10.0 mi NNE 5.8 mph - N/A   Unknown
11:55 PM 23.0 °F 14.7 °F 17.6 °F 80% 30.38 in 10.0 mi NE 6.9 mph - N/A   Unknown